Location: ????????
(55.6189°N, 38.3031°E)
Time: 06:17:37
(UTC+00:00)

Cosmos 1933 - Pass Details

Date: 15 November 2019
Orbit: 546 x 565 km, 82.5° (Epoch: 06 December)

Event Time Altitude Azimuth Distance (km) Brightness Sun altitude
Rises 03:21:51 0° 347° (NNW) 2,745 6.6 -13.6°
Reaches altitude 10° 03:24:02 10° 346° (NNW) 1,843 5.7 -13.3°
Maximum altitude 03:28:05 78° 262° (W) 569 3.2 -12.8°
Drops below altitude 10° 03:32:05 10° 175° (S) 1,820 6.2 -12.2°
Sets 03:34:14 0° 174° (S) 2,707 7.1 -11.9°
